• In Belarus
  • List of Countries
  • For 7 days
  • Water Temperature
  • Satellite Maps
  • Weather Map
  • Weather Widgets
  • user-avatar
    Login

    Hourly Weather Ganja

    Today, 21 October, Sunday

    Time Temperature Precipitation Wind Pressure Humidity
    00:00 +17°C° 0 mm 0 mps 726 mmHg 68%
    01:00 +16°C° 0 mm 0 mps 726 mmHg 69%
    02:00 +16°C° 0 mm 0 mps 726 mmHg 69%
    03:00 +16°C° 0 mm 0 mps 725 mmHg 70%
    04:00 +18°C° 0 mm 1 mps 726 mmHg 69%
    05:00 +16°C° 0 mm 1 mps 726 mmHg 68%
    06:00 +16°C° 0 mm 1 mps 726 mmHg 68%
    07:00 +19°C° 0 mm 1 mps 726 mmHg 62%
    08:00 +20°C° 0 mm 1 mps 726 mmHg 56%
    09:00 +22°C° 0 mm 1 mps 726 mmHg 52%
    10:00 +23°C° 0 mm 1 mps 726 mmHg 48%
    11:00 +23°C° 0 mm 1 mps 726 mmHg 45%
    12:00 +24°C° 0 mm 1 mps 726 mmHg 41%
    13:00 +25°C° 0 mm 2 mps 725 mmHg 41%
    14:00 +25°C° 0 mm 2 mps 725 mmHg 40%
    15:00 +25°C° 0 mm 2 mps 725 mmHg 40%
    16:00 +24°C° 0 mm 2 mps 725 mmHg 44%
    17:00 +23°C° 0 mm 2 mps 725 mmHg 48%
    18:00 +22°C° 0 mm 1 mps 725 mmHg 53%
    19:00 +22°C° 0 mm 1 mps 725 mmHg 54%
    20:00 +21°C° 0 mm 1 mps 725 mmHg 55%
    21:00 +21°C° 0 mm 1 mps 726 mmHg 56%
    22:00 +20°C° 0 mm 1 mps 726 mmHg 57%
    23:00 +20°C° 0 mm 1 mps 726 mmHg 58%

    Tomorrow, 22 October, Monday

    Time Temperature Precipitation Wind Pressure Humidity
    00:00 +18°C° 0 mm 0 mps 726 mmHg 59%
    01:00 +17°C° 0 mm 0 mps 726 mmHg 61%
    02:00 +17°C° 0 mm 0 mps 726 mmHg 62%
    03:00 +17°C° 0 mm 0 mps 726 mmHg 64%
    04:00 +16°C° 0 mm 0 mps 726 mmHg 63%
    05:00 +18°C° 0 mm 1 mps 726 mmHg 63%
    06:00 +18°C° 0 mm 1 mps 726 mmHg 63%
    07:00 +19°C° 0 mm 1 mps 726 mmHg 58%
    08:00 +19°C° 0 mm 2 mps 726 mmHg 53%
    09:00 +20°C° 0 mm 2 mps 726 mmHg 48%
    10:00 +21°C° 0.2 mm 2 mps 726 mmHg 47%
    11:00 +21°C° 0.2 mm 2 mps 726 mmHg 46%
    12:00 +23°C° 0.2 mm 2 mps 726 mmHg 45%
    13:00 +22°C° 0 mm 3 mps 726 mmHg 45%
    14:00 +22°C° 0 mm 3 mps 726 mmHg 45%
    15:00 +22°C° 0 mm 3 mps 725 mmHg 44%
    16:00 +21°C° 0 mm 3 mps 726 mmHg 49%
    17:00 +20°C° 0 mm 2 mps 726 mmHg 53%
    18:00 +19°C° 0 mm 2 mps 726 mmHg 57%
    19:00 +19°C° 0 mm 2 mps 726 mmHg 58%
    20:00 +18°C° 0 mm 2 mps 726 mmHg 59%
    21:00 +18°C° 0 mm 2 mps 727 mmHg 60%
    22:00 +18°C° 0 mm 2 mps 727 mmHg 61%
    23:00 +17°C° 0 mm 2 mps 727 mmHg 61%

    Day after tomorrow, 23 October, Tuesday

    Time Temperature Precipitation Wind Pressure Humidity
    00:00 +17°C° 0 mm 2 mps 727 mmHg 62%
    01:00 +17°C° 0 mm 2 mps 727 mmHg 62%
    02:00 +17°C° 0 mm 2 mps 727 mmHg 63%
    03:00 +16°C° 0 mm 2 mps 726 mmHg 63%
    04:00 +16°C° 0 mm 2 mps 726 mmHg 64%
    05:00 +16°C° 0 mm 2 mps 726 mmHg 64%
    06:00 +16°C° 0 mm 2 mps 726 mmHg 64%
    07:00 +17°C° 0 mm 2 mps 726 mmHg 59%
    08:00 +19°C° 0 mm 2 mps 726 mmHg 54%
    09:00 +20°C° 0 mm 2 mps 727 mmHg 49%
    10:00 +21°C° 0 mm 2 mps 726 mmHg 47%
    11:00 +23°C° 0 mm 2 mps 726 mmHg 44%
    12:00 +24°C° 0 mm 2 mps 726 mmHg 41%
    13:00 +24°C° 0 mm 2 mps 725 mmHg 41%
    14:00 +24°C° 0 mm 2 mps 725 mmHg 41%
    15:00 +24°C° 0 mm 2 mps 724 mmHg 40%
    16:00 +23°C° 0 mm 1 mps 724 mmHg 44%
    17:00 +22°C° 0 mm 1 mps 724 mmHg 49%
    18:00 +20°C° 0 mm 1 mps 725 mmHg 53%
    19:00 +20°C° 0 mm 1 mps 725 mmHg 54%
    20:00 +20°C° 0 mm 1 mps 725 mmHg 54%
    21:00 +19°C° 0 mm 1 mps 725 mmHg 54%
    22:00 +19°C° 0 mm 1 mps 725 mmHg 53%
    23:00 +19°C° 0 mm 1 mps 725 mmHg 53%

    24 October, Wednesday

    Time Temperature Precipitation Wind Pressure Humidity
    00:00 +18°C° 0 mm 1 mps 724 mmHg 53%
    01:00 +18°C° 0 mm 1 mps 724 mmHg 52%
    02:00 +18°C° 0 mm 1 mps 724 mmHg 52%
    03:00 +16°C° 0 mm 1 mps 724 mmHg 51%
    04:00 +16°C° 0.1 mm 2 mps 723 mmHg 52%
    05:00 +16°C° 0.1 mm 2 mps 723 mmHg 52%
    06:00 +16°C° 0.1 mm 2 mps 723 mmHg 53%
    07:00 +17°C° 0 mm 2 mps 723 mmHg 52%
    08:00 +18°C° 0 mm 3 mps 723 mmHg 50%
    09:00 +19°C° 0 mm 3 mps 723 mmHg 49%
    10:00 +20°C° 0 mm 3 mps 722 mmHg 46%
    11:00 +21°C° 0 mm 3 mps 722 mmHg 43%
    12:00 +22°C° 0 mm 3 mps 721 mmHg 40%
    13:00 +24°C° 0 mm 3 mps 721 mmHg 40%
    14:00 +24°C° 0 mm 2 mps 720 mmHg 40%
    15:00 +24°C° 0 mm 2 mps 720 mmHg 39%
    16:00 +23°C° 0 mm 2 mps 719 mmHg 42%
    17:00 +21°C° 0 mm 2 mps 719 mmHg 45%
    18:00 +21°C° 0 mm 1 mps 719 mmHg 47%
    19:00 +20°C° 0 mm 2 mps 719 mmHg 48%
    20:00 +19°C° 0 mm 2 mps 719 mmHg 49%
    21:00 +19°C° 0 mm 2 mps 719 mmHg 50%
    22:00 +19°C° 0 mm 2 mps 719 mmHg 52%
    23:00 +18°C° 0 mm 3 mps 719 mmHg 54%

    25 October, Thursday

    Time Temperature Precipitation Wind Pressure Humidity
    00:00 +18°C° 0 mm 3 mps 718 mmHg 55%
    01:00 +17°C° 0 mm 3 mps 718 mmHg 56%
    02:00 +17°C° 0 mm 3 mps 718 mmHg 56%
    03:00 +17°C° 0 mm 3 mps 718 mmHg 57%
    04:00 +17°C° 0 mm 3 mps 718 mmHg 57%
    05:00 +17°C° 0 mm 3 mps 717 mmHg 57%
    06:00 +17°C° 0 mm 3 mps 717 mmHg 58%
    07:00 +18°C° 0 mm 3 mps 717 mmHg 52%
    08:00 +20°C° 0 mm 3 mps 717 mmHg 47%
    09:00 +22°C° 0 mm 3 mps 717 mmHg 41%
    10:00 +24°C° 0 mm 3 mps 716 mmHg 38%
    11:00 +25°C° 0 mm 4 mps 716 mmHg 35%
    12:00 +27°C° 0 mm 5 mps 716 mmHg 32%
    13:00 +27°C° 0 mm 5 mps 715 mmHg 31%
    14:00 +27°C° 0 mm 4 mps 714 mmHg 31%
    15:00 +27°C° 0 mm 4 mps 714 mmHg 30%
    16:00 +26°C° 0 mm 3 mps 714 mmHg 34%
    17:00 +24°C° 0 mm 3 mps 714 mmHg 37%
    18:00 +23°C° 0 mm 2 mps 714 mmHg 41%
    19:00 +21°C° 0 mm 2 mps 715 mmHg 42%
    20:00 +21°C° 0 mm 2 mps 715 mmHg 43%
    21:00 +21°C° 0 mm 2 mps 715 mmHg 44%
    22:00 +20°C° 0 mm 2 mps 715 mmHg 46%
    23:00 +19°C° 0 mm 2 mps 715 mmHg 48%

    26 October, Friday

    Time Temperature Precipitation Wind Pressure Humidity
    00:00 +19°C° 0 mm 2 mps 715 mmHg 50%
    01:00 +18°C° 0 mm 2 mps 715 mmHg 51%
    02:00 +18°C° 0 mm 2 mps 715 mmHg 52%
    03:00 +18°C° 0 mm 3 mps 715 mmHg 53%
    04:00 +17°C° 0 mm 3 mps 716 mmHg 57%
    05:00 +17°C° 0 mm 3 mps 716 mmHg 60%
    06:00 +15°C° 0 mm 4 mps 717 mmHg 63%
    07:00 +15°C° 0 mm 4 mps 717 mmHg 60%
    08:00 +16°C° 0 mm 5 mps 718 mmHg 57%
    09:00 +16°C° 0 mm 5 mps 718 mmHg 54%
    10:00 +16°C° 0 mm 6 mps 719 mmHg 52%
    11:00 +16°C° 0 mm 6 mps 719 mmHg 50%
    12:00 +16°C° 0 mm 7 mps 719 mmHg 48%
    13:00 +15°C° 0.4 mm 7 mps 719 mmHg 52%
    14:00 +14°C° 0.4 mm 6 mps 720 mmHg 56%
    15:00 +13°C° 0.4 mm 6 mps 720 mmHg 60%
    16:00 +11°C° 1 mm 6 mps 721 mmHg 63%
    17:00 +12°C° 1 mm 5 mps 721 mmHg 66%
    18:00 +12°C° 1 mm 4 mps 722 mmHg 69%
    19:00 +10°C° 1.7 mm 5 mps 723 mmHg 67%
    20:00 +10°C° 1.7 mm 5 mps 723 mmHg 66%
    21:00 +10°C° 1.7 mm 6 mps 724 mmHg 64%
    22:00 +10°C° 0.8 mm 5 mps 725 mmHg 64%
    23:00 +10°C° 0.8 mm 5 mps 725 mmHg 63%
    Show more